BAW207 EGLL-KMIA

Flight info

Callsign BAW207
Flight time N/A
Altitude 24000
Route CPT L9 TIGWE DCT FELCA DCT NICXI DCT OFSOX DCT BANBA
Aircraft B744/H-VGD/A

Departure

Time 2026-05-07 08:19
Airport London Heathrow Airport (EGLL)

Arrival

Time N/A
Airport Miami International Airport (KMIA)
Time Latitude Longitude Altitude Speed Heading
2026-05-07 07:51 51.47117 -0.47721 96 ft 0 kts 90°
2026-05-07 08:05 51.47118 -0.47735 96 ft 2 kts 89°
2026-05-07 08:05 51.47117 -0.47761 96 ft 1 kts 87°
2026-05-07 08:05 51.47116 -0.47787 96 ft 1 kts 89°
2026-05-07 08:05 51.47116 -0.47813 96 ft 1 kts 93°
2026-05-07 08:06 51.47118 -0.47837 96 ft 1 kts 108°
2026-05-07 08:06 51.47122 -0.47856 96 ft 2 kts 129°
2026-05-07 08:06 51.47130 -0.47870 96 ft 2 kts 156°
2026-05-07 08:06 51.47143 -0.47878 96 ft 1 kts 175°
2026-05-07 08:07 51.47159 -0.47879 96 ft 1 kts 180°
2026-05-07 08:07 51.47166 -0.47879 96 ft 1 kts 180°
2026-05-07 08:10 51.47164 -0.47879 96 ft 1 kts 180°
2026-05-07 08:10 51.47148 -0.47879 96 ft 2 kts 180°
2026-05-07 08:11 51.47132 -0.47879 96 ft 2 kts 180°
2026-05-07 08:11 51.47117 -0.47879 96 ft 2 kts 180°
2026-05-07 08:11 51.47103 -0.47879 96 ft 2 kts 180°
2026-05-07 08:11 51.47090 -0.47878 96 ft 2 kts 180°
2026-05-07 08:12 51.47079 -0.47878 96 ft 2 kts 180°
2026-05-07 08:12 51.47066 -0.47878 96 ft 3 kts 180°
2026-05-07 08:12 51.47036 -0.47878 96 ft 6 kts 179°
2026-05-07 08:12 51.46988 -0.47877 96 ft 8 kts 180°
2026-05-07 08:13 51.46923 -0.47876 96 ft 11 kts 179°
2026-05-07 08:13 51.46839 -0.47876 96 ft 13 kts 179°
2026-05-07 08:13 51.46754 -0.47875 96 ft 12 kts 180°
2026-05-07 08:13 51.46670 -0.47874 96 ft 12 kts 180°
2026-05-07 08:14 51.46625 -0.47951 96 ft 11 kts 269°
2026-05-07 08:14 51.46624 -0.48071 96 ft 9 kts 270°
2026-05-07 08:14 51.46618 -0.48167 96 ft 8 kts 245°
2026-05-07 08:14 51.46568 -0.48189 96 ft 5 kts 181°
2026-05-07 08:15 51.46533 -0.48190 96 ft 5 kts 180°
2026-05-07 08:15 51.46500 -0.48180 96 ft 5 kts 159°
2026-05-07 08:15 51.46488 -0.48166 96 ft 5 kts 129°
2026-05-07 08:18 51.46481 -0.48144 96 ft 2 kts 101°
2026-05-07 08:18 51.46481 -0.48115 96 ft 5 kts 90°
2026-05-07 08:18 51.46480 -0.47771 96 ft 63 kts 90°
2026-05-07 08:19 51.46486 -0.46730 97 ft 124 kts 90°
2026-05-07 08:19 51.46492 -0.45024 101 ft 176 kts 90°
2026-05-07 08:19 51.46492 -0.42957 384 ft 195 kts 92°
2026-05-07 08:19 51.46179 -0.40784 911 ft 197 kts 112°
2026-05-07 08:20 51.45430 -0.39054 1768 ft 188 kts 133°
2026-05-07 08:20 51.44339 -0.37819 2205 ft 200 kts 151°
2026-05-07 08:20 51.42918 -0.37337 2384 ft 223 kts 180°
2026-05-07 08:20 51.41390 -0.38173 2569 ft 248 kts 210°
2026-05-07 08:21 51.40182 -0.40264 2813 ft 270 kts 240°
2026-05-07 08:21 51.39685 -0.43224 3516 ft 274 kts 266°
2026-05-07 08:21 51.39858 -0.46225 4385 ft 272 kts 281°
2026-05-07 08:21 51.40319 -0.49152 5182 ft 275 kts 286°
2026-05-07 08:22 51.40857 -0.52131 5782 ft 280 kts 286°
2026-05-07 08:22 51.41336 -0.55129 5985 ft 281 kts 284°
2026-05-07 08:22 51.41744 -0.58193 6002 ft 280 kts 282°
2026-05-07 08:22 51.42096 -0.61287 6000 ft 279 kts 281°
2026-05-07 08:23 51.42438 -0.64346 6000 ft 279 kts 281°
2026-05-07 08:23 51.42786 -0.67364 6000 ft 279 kts 281°
2026-05-07 08:23 51.43150 -0.70395 6000 ft 279 kts 282°
2026-05-07 08:23 51.43524 -0.73491 6000 ft 279 kts 282°
2026-05-07 08:24 51.43895 -0.76502 6000 ft 279 kts 282°
2026-05-07 08:24 51.44273 -0.79591 6000 ft 279 kts 282°
2026-05-07 08:24 51.44644 -0.82642 6000 ft 279 kts 282°
2026-05-07 08:24 51.45015 -0.85696 6000 ft 279 kts 282°
2026-05-07 08:25 51.45380 -0.88740 6000 ft 279 kts 281°
2026-05-07 08:25 51.45734 -0.91802 6000 ft 279 kts 281°
2026-05-07 08:25 51.46085 -0.94860 6000 ft 279 kts 281°
2026-05-07 08:25 51.46435 -0.97928 6000 ft 279 kts 281°
2026-05-07 08:26 51.47142 -1.04006 6000 ft 278 kts 281°
2026-05-07 08:26 51.47496 -1.07051 6015 ft 278 kts 281°
2026-05-07 08:26 51.47847 -1.10109 6003 ft 279 kts 281°
2026-05-07 08:27 51.48194 -1.13154 5991 ft 277 kts 281°
2026-05-07 08:27 51.48540 -1.16193 5999 ft 277 kts 281°
2026-05-07 08:27 51.48907 -1.19245 5993 ft 278 kts 285°
2026-05-07 08:27 51.49696 -1.22011 6044 ft 276 kts 303°
2026-05-07 08:28 51.50864 -1.24441 6654 ft 279 kts 311°
2026-05-07 08:28 51.52214 -1.26715 7437 ft 280 kts 316°
2026-05-07 08:28 51.53651 -1.28837 8171 ft 284 kts 318°
2026-05-07 08:28 51.55150 -1.30989 8894 ft 286 kts 317°
2026-05-07 08:29 51.56617 -1.33170 9576 ft 290 kts 317°
2026-05-07 08:29 51.58086 -1.35387 10251 ft 293 kts 316°
2026-05-07 08:29 51.59624 -1.37720 10619 ft 311 kts 315°
2026-05-07 08:29 51.61064 -1.40481 10777 ft 333 kts 306°
2026-05-07 08:30 51.62338 -1.43692 10933 ft 356 kts 300°
2026-05-07 08:30 51.63552 -1.47316 11128 ft 378 kts 297°
2026-05-07 08:30 51.64754 -1.51199 11731 ft 387 kts 296°
2026-05-07 08:30 51.65969 -1.55037 12411 ft 394 kts 297°
2026-05-07 08:31 51.67254 -1.58988 13154 ft 399 kts 297°
2026-05-07 08:31 51.68570 -1.63008 13909 ft 405 kts 297°
2026-05-07 08:31 51.69783 -1.67066 14681 ft 407 kts 291°
2026-05-07 08:31 51.70607 -1.71462 15402 ft 412 kts 284°
2026-05-07 08:32 51.71092 -1.76035 16138 ft 416 kts 277°
2026-05-07 08:32 51.71366 -1.80718 16852 ft 421 kts 275°
2026-05-07 08:32 51.71618 -1.85442 17573 ft 424 kts 275°
2026-05-07 08:32 51.71943 -1.90195 18249 ft 428 kts 277°
2026-05-07 08:33 51.72306 -1.94989 18901 ft 432 kts 277°
2026-05-07 08:33 51.72650 -1.99819 19526 ft 436 kts 276°
2026-05-07 08:33 51.72990 -2.04716 20147 ft 440 kts 276°
2026-05-07 08:33 51.73328 -2.09599 20712 ft 445 kts 276°
2026-05-07 08:34 51.73683 -2.14577 21301 ft 449 kts 277°
2026-05-07 08:34 51.74059 -2.19602 21872 ft 453 kts 276°
2026-05-07 08:34 51.74413 -2.24663 22426 ft 456 kts 276°
2026-05-07 08:34 51.74759 -2.29779 23087 ft 457 kts 276°
2026-05-07 08:35 51.75098 -2.34867 23826 ft 456 kts 276°
2026-05-07 08:35 51.75436 -2.39961 24076 ft 456 kts 276°
2026-05-07 08:35 51.75773 -2.45045 24078 ft 456 kts 276°
2026-05-07 08:35 51.76112 -2.50140 24076 ft 456 kts 276°
2026-05-07 08:36 51.76442 -2.55231 24075 ft 456 kts 276°
2026-05-07 08:36 51.76759 -2.60325 24074 ft 456 kts 276°
2026-05-07 08:36 51.77081 -2.65360 24068 ft 456 kts 276°
2026-05-07 08:36 51.77411 -2.70449 24066 ft 456 kts 276°
2026-05-07 08:37 51.77782 -2.75554 24066 ft 457 kts 277°
2026-05-07 08:37 51.78124 -2.80652 24065 ft 457 kts 276°
2026-05-07 08:37 51.78448 -2.85775 24064 ft 457 kts 276°
2026-05-07 08:37 51.78761 -2.90876 24063 ft 457 kts 276°
2026-05-07 08:38 51.79070 -2.95990 24062 ft 458 kts 276°
2026-05-07 08:38 51.79378 -3.01129 24061 ft 458 kts 276°
2026-05-07 08:38 51.79685 -3.06255 24061 ft 459 kts 276°
2026-05-07 08:38 51.79992 -3.11407 24059 ft 459 kts 276°
2026-05-07 08:39 51.80294 -3.16458 24059 ft 459 kts 276°
2026-05-07 08:39 51.80602 -3.21616 24058 ft 460 kts 276°
2026-05-07 08:39 51.80930 -3.26759 24058 ft 460 kts 276°
2026-05-07 08:39 51.81239 -3.31891 24057 ft 460 kts 276°
2026-05-07 08:40 51.81539 -3.37066 24056 ft 461 kts 276°
2026-05-07 08:40 51.81834 -3.42223 24046 ft 461 kts 276°
2026-05-07 08:40 51.82129 -3.47402 24043 ft 462 kts 276°
2026-05-07 08:40 51.82434 -3.52560 24040 ft 462 kts 277°
2026-05-07 08:41 51.82917 -3.57703 24040 ft 462 kts 281°
2026-05-07 08:41 51.83542 -3.62783 24040 ft 462 kts 282°
2026-05-07 08:41 51.84230 -3.67871 24038 ft 462 kts 283°
2026-05-07 08:41 51.84899 -3.72883 24037 ft 462 kts 282°
2026-05-07 08:42 51.85563 -3.77977 24035 ft 462 kts 282°
2026-05-07 08:42 51.86213 -3.83049 24034 ft 462 kts 282°
2026-05-07 08:42 51.86861 -3.88159 24031 ft 462 kts 282°
2026-05-07 08:42 51.87502 -3.93252 24031 ft 462 kts 282°
2026-05-07 08:43 51.88144 -3.98377 24026 ft 463 kts 282°
2026-05-07 08:43 51.88777 -4.03465 24028 ft 462 kts 282°
2026-05-07 08:43 51.89415 -4.08586 24028 ft 462 kts 282°
2026-05-07 08:43 51.90091 -4.13639 24031 ft 463 kts 283°
2026-05-07 08:44 51.90761 -4.18748 24128 ft 475 kts 282°
2026-05-07 08:44 51.91444 -4.24086 24302 ft 486 kts 282°
2026-05-07 08:44 51.92128 -4.29495 24604 ft 493 kts 282°
2026-05-07 08:44 51.92810 -4.34988 24992 ft 497 kts 282°
2026-05-07 08:45 51.93485 -4.40445 25459 ft 499 kts 282°
2026-05-07 08:45 51.94168 -4.45997 26032 ft 499 kts 282°
2026-05-07 08:45 51.94836 -4.51463 26657 ft 497 kts 282°
2026-05-07 08:45 51.95524 -4.56955 27267 ft 496 kts 283°
2026-05-07 08:46 51.96224 -4.62409 27813 ft 496 kts 282°
2026-05-07 08:46 51.96891 -4.67888 28380 ft 495 kts 282°
2026-05-07 08:46 51.97543 -4.73373 28920 ft 494 kts 282°
2026-05-07 08:46 51.98188 -4.78851 29486 ft 493 kts 282°
2026-05-07 08:47 51.98829 -4.84324 29970 ft 493 kts 282°
2026-05-07 08:47 51.99469 -4.89807 30434 ft 493 kts 282°
2026-05-07 08:47 52.00060 -4.94875 30872 ft 492 kts 282°
2026-05-07 08:47 52.00730 -5.00609 31630 ft 483 kts 282°
2026-05-07 08:48 52.01352 -5.05939 32205 ft 481 kts 282°
2026-05-07 08:48 52.01969 -5.11292 32462 ft 484 kts 282°
2026-05-07 08:48 52.02532 -5.16717 32777 ft 486 kts 278°
2026-05-07 08:48 52.02642 -5.22204 33196 ft 486 kts 270°
2026-05-07 08:49 52.02446 -5.27685 33590 ft 487 kts 267°
2026-05-07 08:49 52.02086 -5.33089 33928 ft 487 kts 265°
2026-05-07 08:49 52.01203 -5.44009 34016 ft 487 kts 264°
2026-05-07 08:50 52.00379 -5.54883 34014 ft 485 kts 265°
2026-05-07 08:50 51.99572 -5.65776 34012 ft 487 kts 265°
2026-05-07 08:51 51.98819 -5.76862 34010 ft 498 kts 266°
2026-05-07 08:51 51.98070 -5.88042 34010 ft 498 kts 264°
2026-05-07 08:52 51.97362 -5.97328 34008 ft 497 kts 264°
2026-05-07 08:52 51.96498 -6.08486 34006 ft 497 kts 264°
2026-05-07 08:53 51.95633 -6.19615 34004 ft 497 kts 264°
2026-05-07 08:53 51.95113 -6.30706 34002 ft 497 kts 269°
2026-05-07 08:54 51.94951 -6.41904 33990 ft 495 kts 270°
2026-05-07 08:54 51.94766 -6.53081 33990 ft 495 kts 270°
2026-05-07 08:55 51.94549 -6.64256 33990 ft 495 kts 269°
2026-05-07 08:55 51.94314 -6.75351 33991 ft 495 kts 269°
2026-05-07 08:56 51.94131 -6.86502 33990 ft 495 kts 270°
2026-05-07 08:56 51.93971 -6.97663 33992 ft 495 kts 269°
2026-05-07 08:57 51.93762 -7.08824 33991 ft 496 kts 269°
2026-05-07 08:57 51.93529 -7.19926 33991 ft 496 kts 269°
2026-05-07 08:58 51.93277 -7.31109 33990 ft 497 kts 269°
2026-05-07 08:58 51.93012 -7.42326 33988 ft 498 kts 269°
2026-05-07 08:59 51.92735 -7.53548 33986 ft 499 kts 269°
2026-05-07 08:59 51.92446 -7.64796 33982 ft 499 kts 268°
2026-05-07 09:00 51.92148 -7.75973 33978 ft 500 kts 268°
2026-05-07 09:00 51.91837 -7.87235 33975 ft 500 kts 268°
2026-05-07 09:01 51.91515 -7.98512 33972 ft 500 kts 268°
2026-05-07 09:01 51.91182 -8.09781 33968 ft 500 kts 268°
2026-05-07 09:02 51.90842 -8.20960 33967 ft 500 kts 268°
2026-05-07 09:02 51.90488 -8.32220 33965 ft 500 kts 268°
2026-05-07 09:03 51.90126 -8.43400 33965 ft 499 kts 268°
2026-05-07 09:03 51.89752 -8.54609 33964 ft 499 kts 268°
2026-05-07 09:04 51.89366 -8.65843 33964 ft 498 kts 267°
2026-05-07 09:04 51.88971 -8.77047 33965 ft 498 kts 267°
2026-05-07 09:05 51.88568 -8.88185 33966 ft 501 kts 267°
2026-05-07 09:05 51.88148 -8.99484 33965 ft 504 kts 267°
2026-05-07 09:06 51.87716 -9.10815 33964 ft 504 kts 266°
2026-05-07 09:06 51.87273 -9.22139 33964 ft 503 kts 266°
2026-05-07 09:07 51.86821 -9.33433 33965 ft 503 kts 266°
2026-05-07 09:07 51.86360 -9.44654 33964 ft 503 kts 266°
2026-05-07 09:08 51.85884 -9.55988 33964 ft 504 kts 266°
2026-05-07 09:08 51.85401 -9.67247 33965 ft 504 kts 266°
2026-05-07 09:09 51.84904 -9.78545 33965 ft 504 kts 266°
2026-05-07 09:09 51.84396 -9.89871 33966 ft 504 kts 265°
2026-05-07 09:10 51.83880 -10.01114 33966 ft 504 kts 265°
2026-05-07 09:10 51.83351 -10.12411 33966 ft 504 kts 265°
2026-05-07 09:11 51.82810 -10.23725 33967 ft 504 kts 265°
2026-05-07 09:11 51.82263 -10.34952 33967 ft 503 kts 265°
2026-05-07 09:12 51.81701 -10.46250 33967 ft 503 kts 265°
2026-05-07 09:12 51.81130 -10.57504 33969 ft 503 kts 265°
2026-05-07 09:13 51.80549 -10.68754 33968 ft 502 kts 265°
2026-05-07 09:13 51.79958 -10.79991 33969 ft 502 kts 265°
2026-05-07 09:14 51.79359 -10.91158 33969 ft 501 kts 264°
2026-05-07 09:14 51.78748 -11.02355 33970 ft 501 kts 264°
2026-05-07 09:15 51.78125 -11.13571 33971 ft 500 kts 264°
2026-05-07 09:15 51.77494 -11.24745 33971 ft 500 kts 264°
2026-05-07 09:16 51.76853 -11.35908 33971 ft 499 kts 264°
2026-05-07 09:16 51.76201 -11.47057 33972 ft 498 kts 264°
2026-05-07 09:17 51.75543 -11.58148 33972 ft 498 kts 264°
2026-05-07 09:17 51.74872 -11.69267 33973 ft 498 kts 264°
2026-05-07 09:18 51.74190 -11.80384 33974 ft 498 kts 264°
2026-05-07 09:18 51.73501 -11.91458 33974 ft 498 kts 263°
2026-05-07 09:19 51.72798 -12.02566 33975 ft 498 kts 263°
2026-05-07 09:19 51.72085 -12.13689 33976 ft 498 kts 263°
2026-05-07 09:20 51.71362 -12.24787 33976 ft 498 kts 263°
2026-05-07 09:20 51.70627 -12.35898 33976 ft 497 kts 263°
2026-05-07 09:21 51.69890 -12.46890 33978 ft 493 kts 262°
2026-05-07 09:21 51.69145 -12.57832 33979 ft 482 kts 262°
2026-05-07 09:22 51.68417 -12.68397 33978 ft 474 kts 263°
2026-05-07 09:22 51.67681 -12.78926 33979 ft 473 kts 263°
2026-05-07 09:23 51.66935 -12.89468 33980 ft 472 kts 262°
2026-05-07 09:23 51.66187 -12.99902 33978 ft 471 kts 262°
2026-05-07 09:24 51.65426 -13.10388 33979 ft 470 kts 262°
2026-05-07 09:24 51.64660 -13.20803 33979 ft 468 kts 262°
2026-05-07 09:25 51.63884 -13.31231 33980 ft 467 kts 262°
2026-05-07 09:25 51.63108 -13.41530 33980 ft 466 kts 261°
2026-05-07 09:26 51.62319 -13.51878 33980 ft 464 kts 261°
2026-05-07 09:26 51.61523 -13.62194 33981 ft 464 kts 261°
2026-05-07 09:27 51.60719 -13.72489 33981 ft 463 kts 261°
2026-05-07 09:28 51.59506 -13.87817 33981 ft 462 kts 261°
2026-05-07 09:28 51.58683 -13.98065 33982 ft 462 kts 261°
2026-05-07 09:29 51.58408 -14.01463 33983 ft 462 kts 261°